Retour au catalogue

NOAA 16 DEB

ActifPO
NORAD 41255·DEBRIS·🇺🇸 United States

Lancé Sep 21, 2000 depuis Vandenberg Space Force Base

Loading…

Prochains Passages (prochaines 24 heures)

TLE

FraisSource: Space-Track

Époque: Sep 14, 2026, 08:56 UTC

1 41255U 00055FF  26257.37234728  .00006650  00000-0  13479-2 0  9998
2 41255  98.7736  50.8801 0028742  84.2585 276.1890 14.61334535562445

Suivez NOAA 16 DEB en temps réel avec AllMySat

Download on the App Store